Regional Weather Roundup
Issued by NWS

Home | Current Version | Previous Version | Graphics & Text | Print | Product List | Glossary On
Versions: 1 2 3 4 5 6 7 8 9 10 11 12 13 14 15 16 17 18 19 20 21 22 23 24 25 26 27
000
ASUS45 KSLC 222010
RWRUT

UTAH REGIONAL WEATHER ROUNDUP
NATIONAL WEATHER SERVICE SALT LAKE CITY UT
200 PM MDT TUE MAY 22 2018

UTZ001>011-023>025-222100-

NORTHERN UTAH

CITY           SKY/WX    TMP DP  RH WIND       PRES   REMARKS
BRIGHAM CITY   CLOUDY    69  40  34 S5        29.93R
DUGWAY         TSTM      66  44  44 NW13      29.91F
HILL AFB       PTSUNNY   65  48  53 SW8       29.93F
LOGAN          CLOUDY    66  46  48 CALM      29.92S
OGDEN          CLOUDY    67  47  48 SW7       29.92S
SALT LAKE CITY CLOUDY    71  46  40 N10       29.89F
TOOELE VALLEY  CLOUDY    63  52  67 NW15      29.91S
WENDOVER       CLOUDY    62  47  57 NW18      29.92F
HEBER CITY     LGT RAIN  55  45  67 S5        29.98R
WEST JORDAN    CLOUDY    67  51  56 N15G21    29.91F

$$

UTZ011>015-024>027-222100-

CENTRAL/NORTHEAST UTAH

CITY           SKY/WX    TMP DP  RH WIND       PRES   REMARKS
PROVO AIRPORT  PTSUNNY   66  48  52 E12       29.92S
MOAB/CANYONLAN PTSUNNY   75  38  26 W18       29.86F
DELTA          PTSUNNY   70  30  23 SE14      29.90S
PRICE          PTSUNNY   71  31  22 S21G31    29.96S
ROOSEVELT      PTSUNNY   70  34  26 N9        29.96F
VERNAL         PTSUNNY   74  36  25 W15G22    29.93S

$$

UTZ013>016-019>022-027-222100-

SOUTHERN UTAH

CITY           SKY/WX    TMP DP  RH WIND       PRES   REMARKS
BRYCE CANYON   MOSUNNY   62  24  23 SW14G25   30.04F
CEDAR CITY     MOSUNNY   71  34  25 SW17G31   29.94F
MILFORD        PTSUNNY   70  34  26 SW14G23   29.89F
ST GEORGE      CLOUDY    77  39  25 SE16      29.84F
HANKSVILLE     PTSUNNY   68  36  30 CALM      29.92F
BLANDING         N/A     73  28  18 S8G25     30.03F

$$

REGIONAL REPORTS     COLORADO/ARIZONA

CITY           SKY/WX    TMP DP  RH WIND       PRES   REMARKS
CRAIG, CO      CLOUDY    70  34  26 VRB5      29.93F
GRAND JUNCTION LGT RAIN  62  43  49 E15G28    29.92F
RIFLE, CO      CLOUDY    68  41  37 W26G33    29.94R
MONTROSE, CO   PTSUNNY   71  37  28 N14G21    29.94F
CORTEZ, CO     CLOUDY    74  28  18 S21G29    29.97R
COLORADO CITY    N/A     70  39  32 S9        29.98F
PAGE, AZ       MOSUNNY   78  15   9 MISG      29.85F
GRAND CANYON   PTSUNNY   67  22  18 W14G25    30.02S
KINGMAN, AZ      N/A    N/A N/A N/A MISG      29.87F
FLAGSTAFF, AZ  SUNNY     63  21  20 SW13G29   30.04F

$$

REGIONAL REPORTS    NEVADA/IDAHO/WYOMING

CITY           SKY/WX    TMP DP  RH WIND       PRES   REMARKS
LAS VEGAS, NV  MOSUNNY   83  35  18 SE6       29.78F
ELY, NY        CLOUDY    54  42  64 NW14      30.01S
ELKO, NV       MOSUNNY   71  40  32 MISG      29.91F
POCATELLO, ID  PTSUNNY   74  49  41 E9        29.90F
BURLEY, ID     MOSUNNY   75  49  39 NE8       29.86F
FORT BRIDGER,  MOCLDY    50  47  90 W18G25    30.11F THUNDER
EVANSTON, WY   LGT RAIN  48  42  80 SE14      30.09R
ROCK SPRINGS,  CLOUDY    65  39  38 NE6       30.02S
KEMMERER, WY   LGT RAIN  46  41  81 SW9G20    30.12R

$$




USA.gov is the U.S. government's official web portal to all federal, state and local government web resources and services.